EW5231 Weather Reports


time (UTC)temp
F
wind
direction
speed
knots
gust
knots
rain 1hr
in
rain 24hr
in
rain mn
in
humidity
%
barometer
mb
20260504081502 39 153 1.7 4.3 0.00 0.00 0.00 76 1007.3
20260504044537 40 281 3.5 8.7 0.00 0.00 0.00 51 1007.9
20260504043037 40 231 0.9 6.1 0.00 0.00 0.00 51 1008.2
20260504041536 40 259 3.5 7.8 0.00 0.00 0.00 49 1008.3
20260504040041 38 267 1.7 4.3 0.00 0.00 0.00 52 1008.3
20260504034536 38 235 0.9 3.5 0.00 0.00 0.00 52 1008.1
20260504033046 39 257 2.6 7.8 0.00 0.00 0.00 51 1008.2
20260504031536 39 286 2.6 7.0 0.00 0.00 0.00 51 1008.1
20260504031532 39 272 2.6 7.0 0.00 0.00 0.00 50 1008.1
20260504030031 39 273 2.6 6.1 0.00 0.00 0.00 52 1008.1
20260504024542 38 276 2.6 8.7 0.00 0.00 0.00 54 1008.2
20260504023059 38 259 1.7 6.1 0.00 0.00 0.00 55 1008.1
20260504021558 37 301 1.7 6.1 0.00 0.00 0.00 56 1008.1
20260504020031 38 303 1.7 6.1 0.00 0.00 0.00 56 1008.3
20260504014531 37 276 1.7 6.1 0.00 0.00 0.00 60 1008.2
20260504013044 34 246 0.9 2.6 0.00 0.00 0.00 66 1008.2
20260504011502 34 269 0.0 2.6 0.00 0.00 0.00 66 1008.1
20260504010029 34 283 0.0 1.7 0.00 0.00 0.00 65 1007.9
20260504004539 35 275 0.0 0.9 0.00 0.00 0.00 63 1007.8
20260504003014 37 275 0.0 1.7 0.00 0.00 0.00 60 1007.8
20260504001506 39 282 0.0 2.6 0.00 0.00 0.00 55 1007.7
20260504000003 39 279 0.9 4.3 0.00 0.01 0.00 54 1007.6
20260503234503 40 279 0.9 5.2 0.00 0.01 0.00 54 1007.6
20260503233002 41 316 3.5 9.6 0.00 0.01 0.00 51 1007.5
20260503231503 42 293 4.3 9.6 0.00 0.01 0.00 48 1007.5
20260503230032 43 313 4.3 10.4 0.00 0.02 0.00 49 1007.4
20260503224531 44 335 3.5 9.6 0.00 0.02 0.00 50 1007.3
20260503223011 42 305 3.5 10.4 0.00 0.02 0.00 49 1007.5
20260503221513 43 346 3.5 10.4 0.00 0.02 0.00 50 1007.5
20260503214538 43 294 4.3 11.3 0.00 0.05 0.00 51 1007.2
20260503213038 42 355 4.3 8.7 0.00 0.05 0.00 51 1007.2
20260503211541 42 328 5.2 10.4 0.00 0.05 0.00 52 1007.2
20260503210032 43 293 3.5 12.2 0.00 0.05 0.00 52 1007.2
20260503204505 43 281 3.5 10.4 0.00 0.05 0.00 54 1007.1
20260503203003 41 249 6.1 12.2 0.00 0.05 0.00 52 1007.2
20260503201502 42 305 5.2 13.0 0.00 0.05 0.00 52 1007.2
20260503200001 42 335 7.0 14.8 0.00 0.05 0.00 53 1007.2
20260503194600 41 283 3.5 10.4 0.00 0.05 0.00 56 1007.5
20260503193038 41 315 6.1 12.2 0.00 0.05 0.00 50 1007.5
20260503191530 42 346 6.1 13.9 0.00 0.05 0.00 51 1007.5
20260503190100 42 199 6.1 14.8 0.00 0.05 0.00 52 1007.4
20260503184608 43 277 7.8 16.5 0.00 0.05 0.00 47 1007.3
20260503183055 42 290 7.0 20.0 0.00 0.05 0.00 48 1007.3
20260503181601 42 355 7.8 16.5 0.00 0.05 0.00 47 1007.4
20260503180055 43 335 5.2 13.9 0.00 0.06 0.00 49 1007.2
20260503174607 41 308 5.2 15.6 0.00 0.06 0.00 53 1007.3
20260503173050 42 321 7.0 13.9 0.00 0.06 0.00 49 1007.3
20260503171548 43 333 4.3 12.2 0.00 0.06 0.00 49 1007.2